FW4301 Weather Reports


time (UTC)temp
C
wind
direction
speed
KPH
gust
KPH
rain 1hr
cm
rain 24hr
cm
rain mn
cm
humidity
%
barometer
mb
20260506034029 23 0 0.0 0.0 0.00 0.00 0.00 55 1007.9
20260506033530 23 0 0.0 0.0 0.00 0.00 0.00 55 1007.9
20260506033047 23 0 0.0 0.0 0.00 0.00 0.00 55 1007.8
20260506032528 23 0 0.0 0.0 0.00 0.00 0.00 55 1007.8
20260506032031 23 0 0.0 0.0 0.00 0.00 0.00 55 1007.8
20260506031540 23 0 0.0 0.0 0.00 0.00 0.00 55 1007.7
20260506031029 23 0 0.0 0.0 0.00 0.00 0.00 54 1007.8
20260506030531 24 0 0.0 0.0 0.00 0.00 0.00 54 1007.9
20260506030057 24 0 0.0 0.0 0.00 0.00 0.00 54 1007.9
20260506025528 24 0 0.0 0.0 0.00 0.00 0.00 54 1007.7
20260506025028 25 0 0.0 0.0 0.00 0.00 0.00 53 1007.5
20260506024602 25 0 0.0 0.0 0.00 0.00 0.00 54 1007.2
20260506024031 25 0 0.0 0.0 0.00 0.00 0.00 55 1007.0
20260506023530 25 0 0.0 0.0 0.00 0.00 0.00 59 1006.7
20260506023044 25 0 0.0 0.0 0.00 0.00 0.00 63 1006.6
20260506022530 25 0 0.0 0.0 0.00 0.00 0.00 63 1006.5
20260506022030 25 0 0.0 0.0 0.00 0.00 0.00 63 1006.3
20260506021551 26 0 0.0 0.0 0.00 0.00 0.00 62 1006.0
20260506021030 26 0 0.0 0.0 0.00 0.00 0.00 62 1006.0
20260506020529 26 0 0.0 0.0 0.00 0.00 0.00 61 1005.6
20260506020041 26 0 0.0 0.0 0.00 0.00 0.00 61 1005.6
20260506015531 26 0 0.0 0.0 0.00 0.00 0.00 61 1005.5
20260506015029 26 0 0.0 0.0 0.00 0.00 0.00 61 1005.5
20260506014547 26 0 0.0 0.0 0.00 0.00 0.00 61 1005.5
20260506014030 26 0 0.0 0.0 0.00 0.00 0.00 61 1005.5
20260506013532 26 0 0.0 0.0 0.00 0.00 0.00 61 1005.3
20260506013048 26 0 0.0 0.0 0.00 0.00 0.00 61 1005.3
20260506012528 26 0 0.0 0.0 0.00 0.00 0.00 61 1005.3
20260506012031 26 0 0.0 0.0 0.00 0.00 0.00 60 1005.3
20260506011610 26 0 0.0 0.0 0.00 0.00 0.00 60 1005.1
20260506011031 27 0 0.0 1.6 0.00 0.00 0.00 60 1004.8
20260506010529 27 0 0.0 1.6 0.00 0.00 0.00 60 1004.6
20260506010040 27 0 0.0 1.6 0.00 0.00 0.00 59 1004.5
20260506005531 27 0 0.0 3.2 0.00 0.00 0.00 59 1004.5
20260506005033 27 0 0.0 3.2 0.00 0.00 0.00 59 1004.5
20260506004544 27 0 0.0 3.2 0.00 0.00 0.00 59 1004.5
20260506004029 27 0 0.0 3.2 0.00 0.00 0.00 58 1004.5
20260506003528 27 0 0.0 4.8 0.00 0.00 0.00 58 1004.5
20260506003046 28 0 0.0 8.0 0.00 0.00 0.00 57 1004.5
20260506002529 28 40 0.0 8.0 0.00 0.00 0.00 56 1004.6
20260506002030 28 40 1.6 8.0 0.00 0.00 0.00 56 1004.6
20260506001545 28 40 1.6 6.4 0.00 0.00 0.00 57 1004.4
20260506001031 28 40 1.6 6.4 0.00 0.00 0.00 56 1004.3
20260506000533 28 40 0.0 4.8 0.00 0.00 0.00 56 1004.3
20260506000053 28 40 0.0 4.8 0.00 0.00 0.00 56 1004.4
20260505235529 28 0 0.0 4.8 0.00 0.00 0.00 56 1004.4
20260505235029 28 0 0.0 4.8 0.00 0.00 0.00 56 1004.4
20260505234542 29 0 0.0 4.8 0.00 0.00 0.00 55 1004.4
20260505234031 29 0 0.0 4.8 0.00 0.00 0.00 55 1004.4
20260505233532 29 0 0.0 6.4 0.00 0.00 0.00 55 1004.4
20260505233039 29 0 0.0 6.4 0.00 0.00 0.00 54 1004.4
20260505232531 29 40 1.6 6.4 0.00 0.00 0.00 53 1004.2
20260505232028 30 40 1.6 6.4 0.00 0.00 0.00 53 1004.3
20260505231545 30 40 0.0 6.4 0.00 0.00 0.00 52 1004.2
20260505231030 30 0 0.0 6.4 0.00 0.00 0.00 54 1004.3
20260505230531 30 0 0.0 6.4 0.00 0.00 0.00 54 1004.2
20260505230044 30 0 0.0 4.8 0.00 0.00 0.00 54 1004.2
20260505225529 30 40 0.0 8.0 0.00 0.00 0.00 55 1004.2
20260505225030 30 40 0.0 8.0 0.00 0.00 0.00 54 1004.2
20260505224541 30 0 0.0 8.0 0.00 0.00 0.00 54 1004.1
20260505224031 30 0 0.0 11.3 0.00 0.00 0.00 54 1004.0
20260505223531 30 40 3.2 11.3 0.00 0.00 0.00 52 1004.0
20260505223040 30 40 3.2 11.3 0.00 0.00 0.00 52 1004.0
20260505222528 30 40 1.6 6.4 0.00 0.00 0.00 52 1004.0
20260505222031 31 40 0.0 4.8 0.00 0.00 0.00 52 1004.0
20260505221557 31 0 0.0 4.8 0.00 0.00 0.00 53 1004.0
20260505221031 31 0 0.0 6.4 0.00 0.00 0.00 52 1003.9
20260505220533 31 40 0.0 9.7 0.00 0.00 0.00 50 1004.0
20260505220056 32 0 1.6 9.7 0.00 0.00 0.00 49 1003.9
20260505215531 32 40 0.0 8.0 0.00 0.00 0.00 50 1004.0
20260505215030 32 0 0.0 8.0 0.00 0.00 0.00 49 1004.0
20260505214552 32 40 0.0 6.4 0.00 0.00 0.00 46 1003.9
20260505214030 32 40 0.0 6.4 0.00 0.00 0.00 43 1003.8
20260505213528 32 39 0.0 6.4 0.00 0.00 0.00 44 1003.9
20260505213041 32 0 1.6 6.4 0.00 0.00 0.00 43 1003.9
20260505212529 32 40 0.0 4.8 0.00 0.00 0.00 44 1004.0
20260505212029 32 0 0.0 9.7 0.00 0.00 0.00 44 1004.1
20260505211542 32 40 0.0 9.7 0.00 0.00 0.00 44 1004.1
20260505211029 32 0 1.6 9.7 0.00 0.00 0.00 44 1004.2
20260505210528 32 39 0.0 4.8 0.00 0.00 0.00 44 1004.3
20260505210051 32 0 0.0 6.4 0.00 0.00 0.00 45 1004.5
20260505205533 32 0 0.0 6.4 0.00 0.00 0.00 46 1004.3
20260505205031 32 0 1.6 6.4 0.00 0.00 0.00 44 1004.3
20260505204555 32 0 0.0 6.4 0.00 0.00 0.00 45 1004.3
20260505204029 32 39 1.6 6.4 0.00 0.00 0.00 45 1004.6
20260505203531 32 0 1.6 6.4 0.00 0.00 0.00 46 1004.7
20260505203043 32 0 1.6 8.0 0.00 0.00 0.00 45 1004.7
20260505202531 32 0 0.0 8.0 0.00 0.00 0.00 46 1004.8
20260505202031 31 39 1.6 6.4 0.00 0.00 0.00 46 1004.8
20260505201546 31 39 1.6 6.4 0.00 0.00 0.00 46 1004.8
20260505201030 31 40 1.6 6.4 0.00 0.00 0.00 47 1004.8
20260505200531 31 0 0.0 4.8 0.00 0.00 0.00 48 1004.8
20260505200040 31 40 0.0 6.4 0.00 0.00 0.00 47 1004.8
20260505195528 31 40 0.0 6.4 0.00 0.00 0.00 48 1004.8
20260505195030 31 40 0.0 8.0 0.00 0.00 0.00 49 1004.9
20260505194556 31 0 0.0 8.0 0.00 0.00 0.00 47 1005.0
20260505194031 31 40 1.6 8.0 0.00 0.00 0.00 47 1005.0
20260505193531 31 0 1.6 9.7 0.00 0.00 0.00 47 1005.1
20260505193047 31 0 0.0 9.7 0.00 0.00 0.00 48 1005.2
20260505192530 31 0 0.0 6.4 0.00 0.00 0.00 50 1005.2
20260505192028 30 0 1.6 8.0 0.00 0.00 0.00 49 1005.2
20260505191547 30 0 1.6 8.0 0.00 0.00 0.00 49 1005.2
20260505191030 30 0 0.0 6.4 0.00 0.00 0.00 49 1005.2
20260505190530 30 0 0.0 11.3 0.00 0.00 0.00 49 1005.3
20260505190042 30 0 0.0 11.3 0.00 0.00 0.00 50 1005.3
20260505185529 30 0 1.6 8.0 0.00 0.00 0.00 49 1005.5
20260505185031 30 0 1.6 8.0 0.00 0.00 0.00 49 1005.6
20260505184552 30 0 0.0 8.0 0.00 0.00 0.00 51 1005.5
20260505184032 30 40 1.6 8.0 0.00 0.00 0.00 50 1005.5
20260505183531 30 40 1.6 8.0 0.00 0.00 0.00 50 1005.6
20260505183053 29 40 0.0 8.0 0.00 0.00 0.00 52 1005.7
20260505182530 29 40 0.0 9.7 0.00 0.00 0.00 52 1005.7
20260505182030 28 0 1.6 9.7 0.00 0.00 0.00 52 1005.7
20260505181545 28 40 1.6 9.7 0.00 0.00 0.00 53 1005.7
20260505181030 28 40 0.0 6.4 0.00 0.00 0.00 52 1005.7
20260505180531 28 0 0.0 8.0 0.00 0.00 0.00 53 1005.7
20260505180046 28 0 1.6 8.0 0.00 0.00 0.00 52 1005.8
20260505175531 28 40 1.6 6.4 0.00 0.00 0.00 54 1005.9
20260505175031 28 0 0.0 8.0 0.00 0.00 0.00 54 1005.8
20260505174542 27 0 1.6 8.0 0.00 0.00 0.00 55 1005.8
20260505174032 27 40 1.6 9.7 0.00 0.00 0.00 54 1005.6
20260505173528 27 40 3.2 11.3 0.00 0.00 0.00 54 1005.7
20260505173047 27 40 1.6 11.3 0.00 0.00 0.00 54 1005.6
20260505172530 27 40 1.6 11.3 0.00 0.00 0.00 54 1005.6
20260505172031 27 40 1.6 11.3 0.00 0.00 0.00 55 1005.6
20260505171548 27 40 1.6 11.3 0.00 0.00 0.00 54 1005.5
20260505171030 27 0 1.6 8.0 0.00 0.00 0.00 55 1005.4
20260505170530 27 40 1.6 9.7 0.00 0.00 0.00 55 1005.7
20260505170046 27 40 1.6 11.3 0.00 0.00 0.00 55 1005.7
20260505165530 27 40 3.2 11.3 0.00 0.00 0.00 55 1005.7
20260505165030 27 40 3.2 11.3 0.00 0.00 0.00 54 1005.6
20260505164556 27 40 1.6 9.7 0.00 0.00 0.00 55 1005.6
20260505164030 27 0 1.6 9.7 0.00 0.00 0.00 55 1005.6
20260505163531 27 40 3.2 9.7 0.00 0.00 0.00 55 1005.6
20260505163040 26 40 3.2 11.3 0.00 0.00 0.00 54 1005.8
20260505162530 26 40 1.6 11.3 0.00 0.00 0.00 55 1005.9
20260505162031 26 40 1.6 6.4 0.00 0.00 0.00 55 1005.9
20260505161550 26 40 0.0 6.4 0.00 0.00 0.00 55 1005.9
20260505161029 26 0 0.0 8.0 0.00 0.00 0.00 56 1005.8
20260505160529 26 40 1.6 9.7 0.00 0.00 0.00 56 1005.5
20260505153055 25 0 0.0 8.0 0.00 0.00 0.00 57 1005.9
20260505152535 25 40 1.6 8.0 0.00 0.00 0.00 57 1005.8
20260505152031 25 40 1.6 8.0 0.00 0.00 0.00 58 1005.9
20260505151544 24 40 1.6 8.0 0.00 0.00 0.00 58 1006.0
20260505151032 24 0 1.6 9.7 0.00 0.00 0.00 58 1006.0
20260505150529 24 0 1.6 9.7 0.00 0.00 0.00 58 1006.0
20260505140532 23 39 1.6 9.7 0.00 0.00 0.00 60 1005.5
20260505125028 21 0 0.0 6.4 0.00 0.00 0.00 65 1005.3
20260505124549 21 0 0.0 6.4 0.00 0.00 0.00 65 1005.3
20260505124029 21 39 0.0 4.8 0.00 0.00 0.00 65 1005.3
20260505123529 21 0 0.0 4.8 0.00 0.00 0.00 65 1005.2
20260505123042 21 0 0.0 6.4 0.00 0.00 0.00 65 1005.2
20260505122530 21 0 0.0 6.4 0.00 0.00 0.00 65 1005.1
20260505122029 21 0 0.0 6.4 0.00 0.00 0.00 65 1005.1
20260505121540 21 0 0.0 6.4 0.00 0.00 0.00 65 1005.1
20260505121029 21 0 0.0 3.2 0.00 0.00 0.00 65 1004.9
20260505120529 21 0 0.0 4.8 0.00 0.00 0.00 65 1004.8
20260505120059 21 39 0.0 6.4 0.00 0.00 0.00 65 1004.8
20260505115528 21 0 0.0 6.4 0.00 0.00 0.00 65 1004.8
20260505115032 21 0 0.0 6.4 0.00 0.00 0.00 65 1004.8
20260505114545 21 0 0.0 6.4 0.00 0.00 0.00 65 1004.9
20260505114029 21 39 0.0 6.4 0.00 0.00 0.00 65 1004.9
20260505113530 21 0 0.0 6.4 0.00 0.00 0.00 65 1004.7
20260505113101 21 39 0.0 6.4 0.00 0.00 0.00 65 1004.7
20260505112529 21 0 0.0 4.8 0.00 0.00 0.00 65 1004.7
20260505112029 21 39 0.0 8.0 0.00 0.00 0.00 65 1004.7
20260505111541 21 0 0.0 8.0 0.00 0.00 0.00 65 1004.7
20260505111029 21 39 0.0 6.4 0.00 0.00 0.00 65 1004.7
20260505110528 21 0 0.0 8.0 0.00 0.00 0.00 65 1004.7
20260505102030 21 0 0.0 4.8 0.00 0.00 0.00 64 1004.6
20260505101543 21 0 0.0 4.8 0.00 0.00 0.00 64 1004.6
20260505101029 21 39 0.0 12.9 0.00 0.00 0.00 63 1004.7
20260505100531 21 0 0.0 12.9 0.00 0.00 0.00 63 1004.8
20260505100042 21 39 0.0 11.3 0.00 0.00 0.00 63 1004.6
20260505095528 21 39 1.6 8.0 0.00 0.00 0.00 63 1004.6
20260505095030 21 39 1.6 8.0 0.00 0.00 0.00 62 1004.6
20260505094540 21 0 0.0 14.5 0.00 0.00 0.00 62 1004.7
20260505094029 21 0 0.0 14.5 0.00 0.00 0.00 62 1004.8
20260505093530 21 39 0.0 6.4 0.00 0.00 0.00 62 1004.9
20260505093043 21 39 0.0 6.4 0.00 0.00 0.00 62 1005.0
20260505092529 21 39 0.0 8.0 0.00 0.00 0.00 62 1005.0
20260505092030 21 0 1.6 8.0 0.00 0.00 0.00 62 1005.1
20260505091546 21 0 1.6 8.0 0.00 0.00 0.00 63 1005.2
20260505091029 21 0 0.0 6.4 0.00 0.00 0.00 63 1005.2
20260505090529 21 39 1.6 8.0 0.00 0.00 0.00 63 1005.2
20260505090045 21 0 0.0 8.0 0.00 0.00 0.00 63 1005.3
20260505085528 21 0 1.6 8.0 0.00 0.00 0.00 63 1005.1
20260505085029 21 39 0.0 6.4 0.00 0.00 0.00 63 1005.1
20260505084547 21 0 0.0 6.4 0.00 0.00 0.00 63 1005.0
20260505084028 21 39 1.6 6.4 0.00 0.00 0.00 64 1005.1
20260505083528 21 39 0.0 14.5 0.00 0.00 0.00 64 1005.1
20260505083053 21 39 1.6 14.5 0.00 0.00 0.00 64 1005.1
20260505082529 21 39 0.0 12.9 0.00 0.00 0.00 64 1005.1
20260505082030 21 39 0.0 12.9 0.00 0.00 0.00 64 1005.2
20260505081551 21 39 0.0 12.9 0.00 0.00 0.00 64 1005.3
20260505081030 21 0 0.0 6.4 0.00 0.00 0.00 64 1005.3
20260505080530 21 0 1.6 8.0 0.00 0.00 0.00 64 1005.4
20260505080039 21 0 0.0 8.0 0.00 0.00 0.00 63 1005.4
20260505075528 21 0 0.0 8.0 0.00 0.00 0.00 63 1005.5
20260505075028 21 0 1.6 8.0 0.00 0.00 0.00 63 1005.6
20260505074545 21 0 0.0 8.0 0.00 0.00 0.00 63 1005.6
20260505074028 21 39 0.0 8.0 0.00 0.00 0.00 63 1005.6
20260505073528 21 39 1.6 12.9 0.00 0.00 0.00 63 1005.7
20260505073043 21 39 1.6 12.9 0.00 0.00 0.00 63 1005.8
20260505072530 21 0 1.6 12.9 0.00 0.00 0.00 63 1005.9
20260505072029 21 39 1.6 8.0 0.00 0.00 0.00 63 1005.9
20260505071541 21 39 0.0 8.0 0.00 0.00 0.00 63 1006.0
20260505071029 21 39 0.0 8.0 0.00 0.00 0.00 63 1006.1
20260505070531 21 0 0.0 8.0 0.00 0.00 0.00 63 1006.2
20260505070044 21 0 1.6 8.0 0.00 0.00 0.00 63 1006.3
20260505065529 22 39 0.0 8.0 0.00 0.00 0.00 63 1006.3
20260505065028 22 39 0.0 8.0 0.00 0.00 0.00 63 1006.2
20260505064540 22 39 1.6 8.0 0.00 0.00 0.00 63 1006.3
20260505064028 22 0 1.6 8.0 0.00 0.00 0.00 63 1006.5
20260505063528 22 0 0.0 9.7 0.00 0.00 0.00 63 1006.6
20260505063045 22 39 1.6 9.7 0.00 0.00 0.00 63 1006.4
20260505062529 22 0 0.0 9.7 0.00 0.00 0.00 62 1006.5
20260505062030 22 39 0.0 12.9 0.00 0.00 0.00 63 1006.5
20260505061545 22 39 1.6 12.9 0.00 0.00 0.00 62 1006.6
20260505061029 22 0 0.0 6.4 0.00 0.00 0.00 62 1006.6
20260505060529 22 39 0.0 9.7 0.00 0.00 0.00 62 1006.6
20260505060057 22 0 1.6 9.7 0.00 0.00 0.00 62 1006.5
20260505055529 22 39 0.0 8.0 0.00 0.00 0.00 62 1006.5
20260505055029 22 40 1.6 12.9 0.00 0.00 0.00 62 1006.5
20260505054546 22 0 3.2 12.9 0.00 0.00 0.00 61 1006.4
20260505054032 22 39 1.6 8.0 0.00 0.00 0.00 61 1006.3
20260505053533 22 39 1.6 12.9 0.00 0.00 0.00 61 1006.4
20260505053110 22 0 3.2 12.9 0.00 0.00 0.00 61 1006.4
20260505052528 22 0 0.0 9.7 0.00 0.00 0.00 61 1006.6
20260505052032 22 39 1.6 6.4 0.00 0.00 0.00 61 1006.8
20260505051546 22 39 0.0 6.4 0.00 0.00 0.00 60 1006.8
20260505051028 22 39 0.0 6.4 0.00 0.00 0.00 60 1006.8
20260505050531 22 0 0.0 6.4 0.00 0.00 0.00 60 1006.9
20260505041547 23 0 1.6 8.0 0.00 0.00 0.00 58 1007.0
20260505041029 23 0 1.6 9.7 0.00 0.00 0.00 57 1007.1
20260505040529 23 0 1.6 9.7 0.00 0.00 0.00 58 1007.1
20260505040049 23 0 0.0 8.0 0.00 0.00 0.00 58 1007.1
20260505035531 23 0 0.0 8.0 0.00 0.00 0.00 58 1007.1
20260505035029 23 0 0.0 8.0 0.00 0.00 0.00 58 1007.2
20260505034601 23 39 0.0 8.0 0.00 0.00 0.00 57 1007.0